Preview of NWS' New Version of Forecast
This preview is not operational and should not be used for support decisions.
Latest weather observations around

Kenai, Kenai Municipal Airport (PAEN)

Using English Units (Switch to International System of Units)
Date/ Time (AKDT) Wind (mph) Vis. (mi) Weather Sky Cond. Temp (°F) Rel. Humidity Wind Chill (°F) Heat Index (°F) Pressure Precip. (in)
Air Dwpt 6 hour Altimeter (inHg) Sea level (inHg) 1 hr 3 hr 6 hr
Max Min
Sep 21 12:53 Calm 10 Cloudy SCT011 OVC044 52 47     83%     29.43 29.43   0  
Sep 21 11:53 S 3 10 Cloudy BKN042 OVC055 51 48     89%     29.4 29.41 0    
Sep 21 10:53 SE 3 10 Cloudy SCT048 BKN080 OVC100 49 48     97% 48   29.38 29.39      
Sep 21 09:53 ESE 5 10 Cloudy BKN050 OVC080 48 48     100% 46   29.36 29.36 0   0
Sep 21 08:53 S 5 10 Light Rain FEW033 OVC048 47 47     100% 45   29.34 29.34 0    
Sep 21 07:53 S 6 10 Light Rain FEW029 BKN042 OVC070 47 47     100% 44   29.31 29.31 0    
Sep 21 06:53 SSE 6 6 Light Rain and Fog/Mist FEW029 FEW036 OVC047 47 47     100% 44   29.29 29.29 0 0  
Sep 21 05:53 SE 5 10 Light Rain OVC049 47 47     100% 45   29.26 29.27 0    
Sep 21 04:53 S 5 10 Light Rain OVC055 48 48     100% 46   29.24 29.24 0    
Sep 21 03:53 S 6 10 Light Rain OVC055 49 47     93% 46   29.22 29.22 0   0
Sep 21 02:53 SSE 8 10 Cloudy OVC065 50 47     89%     29.19 29.2 0    
Sep 21 01:53 SSE 9 10 Cloudy BKN070 OVC090 50 48     93%     29.17 29.17 0    
Sep 21 00:53 SSE 7 10 Cloudy SCT070 OVC085 50 47     89%     29.14 29.15 0 0  
Sep 20 23:53 S 6 10 Cloudy BKN060 OVC075 51 48     89%     29.13 29.13      
Sep 20 22:53 S 6 10 Cloudy OVC070 51 48     89%     29.11 29.11      
Sep 20 21:53 SSW 10 10 Mostly Cloudy BKN075 51 48     89%     29.09 29.1      
Sep 20 20:53 SSW 10 10 Cloudy OVC070 52 49     89%     29.09 29.09      
Sep 20 19:53 SSW 10 10 Cloudy OVC065 52 49     89%     29.08 29.09      
Sep 20 18:53 SW 14 10 Cloudy OVC060 54 49     83%     29.07 29.08      
Sep 20 17:53 W 5 10 Cloudy OVC060 56 46     69%     29.07 29.08      
Sep 20 16:53 N 9 10 Cloudy SCT060 BKN080 OVC090 55 47     74%     29.08 29.08      
Sep 20 15:53 NNW 13 10 Clear   54 49     83%     29.09 29.1     0
Sep 20 14:53 N 10 10 Cloudy SCT047 BKN060 OVC075 52 50     93%     29.11 29.12 0    
Sep 20 13:53 N 16 10 Clear   52 50     93%     29.12 29.12 0    
Sep 20 13:11 N 16 10 Light Rain SCT012 BKN033 OVC041 51 50     96%     29.13   0    
Sep 20 12:50 N 11 8 Light Rain FEW010 BKN014 OVC033 51 50     96%     29.13 29.13 0 0  
Sep 20 12:49 N 13 8 Light Rain SCT010 BKN014 OVC033 52 50     94%     29.13   0    
Sep 20 11:53 N 16 4 Light Rain and Fog/Mist FEW009 OVC033 50 50     100%     29.14 29.15 0    
Sep 20 10:53 N 15 10 Light Rain FEW010 BKN032 OVC055 50 50     100%     29.14 29.15 0    
Sep 20 09:53 N 13 10 Light Rain FEW014 BKN019 OVC038 50 50     100%     29.16 29.17 0   0
Sep 20 09:29 N 16 10 Light Rain SCT014 BKN019 OVC038 50 50     100%     29.17   0    
Sep 20 09:18 N 14 10 Light Rain BKN014 OVC020 50 50     100%     29.17   0    
Sep 20 09:14 N 16 10 Light Rain SCT013 OVC019 50 50     100%     29.18   0    
Sep 20 08:53 N 16 10 Light Rain BKN014 OVC018 50 50     100%     29.18 29.19 0    
Sep 20 07:53 N 16 10 Light Rain OVC012 50 50     100%     29.22 29.22 0    
Sep 20 06:53 N 14 10 Cloudy BKN010 BKN017 OVC060 50 50     100%     29.25 29.26 0 0  
Sep 20 06:35 N 15 10 Light Rain BKN011 BKN017 OVC060 50 50     100%     29.26   0    
Sep 20 06:23 N 11 10 Light Rain SCT009 BKN018 OVC055 50 50     100%     29.27   0    
Sep 20 05:53 NNE 15 10 Light Rain FEW009 OVC055 50 50     100%     29.29 29.3 0    
Sep 20 04:53 NNE 11 9 Light Rain FEW007 OVC055 50 50     100%     29.32 29.33 0    
Sep 20 04:24 NNE 10 10 Light Rain FEW009 OVC055 50 50     100%     29.34   0    
Sep 20 03:53 NNE 9 10 Light Rain OVC060 50 50     100%     29.35 29.36 0   0
Sep 20 02:53 NNE 9 10 Light Rain OVC060 50 50     100%     29.39 29.39 0    
Sep 20 01:53 NNE 7 10 Light Rain OVC060 50 50     100%     29.41 29.42 0    
Sep 20 00:53 NNE 7 10 Light Rain OVC060 50 50     100%     29.45 29.45 0 0  
Sep 19 23:53 N 5 10 Light Rain OVC060 50 50     100%     29.47 29.47 0    
Sep 19 22:53 NNE 6 10 Light Rain OVC070 50 50     100%     29.49 29.5 0    
Sep 19 21:53 NNE 5 8 Light Rain OVC060 51 51     100%     29.52 29.52 0   0
Sep 19 20:53 Calm 10 Light Rain FEW007 SCT013 OVC065 52 52     100%     29.54 29.54 0    
Sep 19 19:53 Calm 10 Light Rain SCT009 SCT044 OVC055 53 52     96%     29.56 29.57 0    
Sep 19 18:53 Calm 10 Light Rain OVC065 53 52     96%     29.56 29.57 0 0  
Sep 19 17:53 SW 7 10 Light Rain OVC055 54 52     93%     29.59 29.59 0    
Sep 19 16:53 SSW 8 10 Light Rain OVC060 55 52     89%     29.6 29.6 0    
Sep 19 15:53 SSW 8 10 Cloudy BKN075 OVC090 56 50     80%     29.61 29.61 0   0
Sep 19 14:53 SSW 8 10 Cloudy OVC090 57 50     77%     29.62 29.62      
Sep 19 13:53 SSW 13 10 Cloudy SCT070 OVC095 56 50     80%     29.64 29.65      
Sep 19 12:53 SSW 13 10 Cloudy OVC090 57 49     74%     29.64 29.64      
Sep 19 11:53 S 15 10 Mostly Cloudy BKN090 57 47     69%     29.63 29.63      
Sep 19 10:53 S 17 10 Mostly Clear FEW030 FEW100 57 47     69%     29.62 29.62      
Sep 19 09:53 S 14 10 Clear CLR 55 47     74%     29.62 29.62      
Sep 19 08:53 SSE 9 10 Clear CLR 51 47     86%     29.61 29.61      
Sep 19 07:53 SSE 10 10 Clear CLR 50 47     89%     29.6 29.6      
Sep 19 05:53 SSE 11 10 Clear CLR 50 47     89%     29.57 29.57      
Sep 19 04:53 SSE 8 10 Clear CLR 51 47     86%     29.57 29.57      
Sep 19 03:53 S 16 10 Clear CLR 52 48     86%     29.56 29.56      
Sep 19 02:53 S 16 10 Clear CLR 51 48     89%     29.55 29.55      
Sep 19 01:53 S 13 10 Clear CLR 51 49     92%     29.53 29.53      
Sep 19 01:02 S 16 10 Partly Cloudy SCT015 52 49     89%     29.52        
Sep 19 00:53 S 15 10 Mostly Cloudy BKN015 52 49     89%     29.52 29.52      
Sep 19 00:15 S 17 10 Mostly Cloudy BKN015 52 48     86%     29.51        
Sep 18 23:53 S 14 10 Clear CLR 52 48     86%     29.5 29.5      
Sep 18 22:53 SSE 15 10 Clear CLR 52 48     86%     29.48 29.48      
Sep 18 21:53 S 14 10 Clear CLR 53 48     83%     29.46 29.46      
Sep 18 20:53 S 15 10 Clear CLR 54 48     80%     29.44 29.44      
Sep 18 19:53 S 18 10 Clear CLR 55 50     83%     29.42 29.42      
Sep 18 18:53 SSW 21 10 Clear and Windy CLR 56 50     80%     29.4 29.41      
Sep 18 17:53   10 Clear CLR 56 49     77%     29.39 29.39      
Sep 18 16:53   10 Mostly Clear FEW100 56 50     80%     29.37 29.37      
Sep 18 15:53   10 Clear CLR 57 50     77%     29.36 29.36     0
Sep 18 14:53   10 Mostly Clear FEW100 57 51     81%     29.36 29.36      
Sep 18 13:53 S 16 10 Cloudy BKN035 BKN048 OVC060 54 52     93%     29.34 29.34 0    
Sep 18 12:53 S 14 10 Light Rain BKN011 BKN017 OVC070 53 52     96%     29.32 29.33 0 0  
Sep 18 11:53 S 18 9 Light Rain BKN011 OVC041 53 52     96%     29.31 29.31 0    
Sep 18 10:53   10 Light Rain BKN011 OVC055 53 52     96%     29.29 29.3 0    
May 14 13:53 SSW 14 10 Partly Cloudy SCT090 49 37     63% 44   29.88 29.89      
May 14 02:53 S 8 10 Cloudy OVC110 42 33     70% 37   29.77 29.78      
May 13 11:53 N 15 10 Mostly Clear FEW030 48 34     58% 42   29.88 29.89      
May 13 08:53 NNE 13 10 Clear CLR 40 37     89% 32   29.98 29.99      
May 13 01:12 N 3 10 Clear CLR 36 36     100% 33   30.14        
May 11 19:53 SSE 15 10 Mostly Cloudy BKN085 49 32     52% 43   29.94 29.95      
May 11 16:53 S 17 10 Mostly Cloudy FEW050 SCT080 BKN095 51 31     46%     29.9 29.9      
May 11 14:53 SW 10 10 Cloudy BKN050 OVC070 46 38     73% 41   29.87 29.88 0    
Jun 11 10:53 SE 8 10 Cloudy OVC080 53 40     61%     29.79 29.8      
Jun 11 09:53 W 5 10 Cloudy OVC080 51 43     74%     29.79 29.79      
Jun 10 08:53 Calm 3 Fog/Mist SCT002 49 49     100%     29.78 29.79      
Notice The following observation data may not be complete
Jun 09 13:21   10 Light Rain FEW004 OVC095          %         0    
Jun 06 09:53 NNE 15 10 Clear CLR 52 44     74%     29.8 29.8      
Jun 05 17:53 N 18 10 Clear CLR 55 45     69%     29.78 29.78      
Jun 05 12:53 Calm 10 Light Rain OVC055 47 44     90%     29.82 29.83 0 0